PRSS 1 (43530 NORAD) Tracking and Keplerian Element Data

This shows tracking and keplerian element data for the satellite.

Feedback or suggestion? Click here.




ElementValue
Catalog43530
NamePRSS 1
Epoch Orbit35470
Epoch Day35.17367916
Epoch Year2025
RAAN110.5347
Inclination97.8396
Eccentricity0.0001265
Argument of Perigee105.3926
Mean Anonmoly254.7426
Mean Motion14.80576419
Decay Rate2.117E-05
L11 43530U 18056B 25035.17367916 .00002117 00000+0 28275-3 0 9997
L22 43530 97.8396 110.5347 0001265 105.3926 254.7426 14.80576419354704



Live tracking and technical data element details for PRSS 1 (NORAD 43530). PRSS 1 can be tracked NOW for your location showing map with azimuth and elevation plus other details from your city location.







IsCatalogInMostPopularTable: catalog: 43530, numindb: 363
Update: records affected: 1



GetName: 43530 PRSS 1

Hit Count: updated at: Sat, 24 May 2025 17:17:46 GMT